Ravenna, OH

10:01 PM EST on December 13, 2017 (GMT -0500)
Ravenna

Weather History for KPOV - September, 2013

Change the Weather History Date:

Monday, September 16, 2013

  Actual Average (KCAK) Record (KCAK)
Temperature  
Mean Temperature 57 °F -  
Max Temperature 66 °F 70 °F 95 °F (1939)
Min Temperature 48 °F 53 °F 37 °F (1923)
Degree Days  
Heating Degree Days 8    
Growing Degree Days 7 (Base 50)    
Moisture  
Dew Point 53 °F    
Average Humidity 84    
Maximum Humidity 100    
Minimum Humidity 60    
Precipitation  
Precipitation 0.07 in - - ()
Sea Level Pressure  
Sea Level Pressure 30.22 in    
Wind  
Wind Speed 3 mph (NNW)    
Max Wind Speed 14 mph    
Max Gust Speed 21 mph    
Visibility 9 miles    
Events Rain    
Averages and records for this station are not official NWS values.
T = Trace of Precipitation, MM = Missing Value Source: NWS Daily Summary

Daily Weather History Graph

Daily Weather History Graph

Search for Another Location

Airport or City:

Trip Planner

Search our weather history database for the weather conditions in past years. The results will help you decide how hot, cold, wet, or windy it might be!

Date:

Astronomy

Sep. 16, 2013 Rise Set
Actual Time 7:06 AM EDT 7:32 PM EDT
Civil Twilight 6:39 AM EDT 7:59 PM EDT
Nautical Twilight 6:06 AM EDT 8:32 PM EDT
Astronomical Twilight 5:33 AM EDT 9:05 PM EDT
Moon 5:41 PM EDT (9/16) 3:49 AM EDT (9/16)
Length of Visible Light 13h 20m
Length of Day
12h 25m
Waxing Gibbous, 90% of the Moon is Illuminated
Sep 16
Waxing Gibbous
Sep 19
Full
Sep 26
Last Quarter
Oct 4
New
Oct 11
First Quarter

Hourly Weather History & Observations

Time (EDT) Temp. Dew Point Humidity Pressure Visibility Wind Dir Wind Speed Gust Speed Precip Events Conditions
12:14 AM 57.0 °F 55.8 °F 96% 30.12 in 10.0 mi North 3.5 mph - 0.02 in Rain Light Rain
12:34 AM 56.5 °F 56.7 °F 100% 30.12 in 7.0 mi Calm Calm - 0.04 in Rain Rain
12:54 AM - - N/A% 30.12 in 10.0 mi NNW 3.5 mph - 0.05 in Rain Light Rain
1:14 AM 56.3 °F 56.5 °F 100% 30.12 in 10.0 mi Calm Calm - 0.01 in Rain Light Rain
1:34 AM 55.6 °F 55.8 °F 100% 30.12 in 4.0 mi Calm Calm - 0.01 in Rain Rain
1:54 AM 55.4 °F 55.6 °F 100% 30.12 in 5.0 mi Calm Calm - 0.01 in Rain Light Rain
2:14 AM 55.6 °F 55.8 °F 100% 30.12 in 10.0 mi Calm Calm - 0.01 in Rain Light Rain
2:34 AM 55.6 °F 55.8 °F 100% 30.12 in 5.0 mi Calm Calm - 0.01 in   Light Drizzle
2:54 AM 55.8 °F 56.1 °F 100% 30.12 in 10.0 mi Calm Calm - 0.01 in   Overcast
3:14 AM - - N/A% 30.12 in 7.0 mi Calm Calm - N/A   Overcast
3:34 AM - - N/A% 30.12 in 7.0 mi Calm Calm - N/A   Overcast
3:54 AM 55.8 °F 55.9 °F 100% 30.12 in 7.0 mi Calm Calm - N/A   Overcast
4:14 AM 55.8 °F 55.9 °F 100% 30.12 in 5.0 mi Calm Calm - N/A   Overcast
4:33 AM 55.8 °F 55.9 °F 100% 30.12 in 7.0 mi NE 4.6 mph - N/A   Overcast
4:54 AM - - N/A% 30.13 in 7.0 mi NE 3.5 mph - N/A   Overcast
5:14 AM 55.8 °F 56.1 °F 100% 30.14 in 7.0 mi Calm Calm - N/A   Overcast
5:34 AM - - N/A% 30.14 in 7.0 mi Calm Calm - N/A   Overcast
5:53 AM 55.8 °F 56.1 °F 100% 30.15 in 7.0 mi Calm Calm - N/A   Overcast
6:14 AM 55.8 °F 55.9 °F 100% 30.16 in 7.0 mi Calm Calm - N/A   Overcast
6:34 AM 55.8 °F 56.1 °F 100% 30.16 in 5.0 mi Calm Calm - N/A   Overcast
6:54 AM 55.8 °F 56.1 °F 100% 30.17 in 7.0 mi Calm Calm - N/A   Overcast
7:14 AM - - N/A% 30.18 in 5.0 mi Calm Calm - N/A   Overcast
7:34 AM 55.8 °F 55.9 °F 100% 30.18 in 5.0 mi Calm Calm - N/A   Overcast
7:54 AM 56.3 °F 56.3 °F 100% 30.18 in 3.0 mi Calm Calm - N/A   Overcast
8:14 AM 56.5 °F 56.7 °F 100% 30.19 in 10.0 mi Calm Calm - N/A   Overcast
8:34 AM 57.6 °F 57.2 °F 99% 30.20 in 10.0 mi Calm Calm - N/A   Overcast
8:54 AM 58.5 °F 55.8 °F 91% 30.20 in 10.0 mi NW 3.5 mph - N/A   Scattered Clouds
9:14 AM 59.0 °F 55.0 °F 87% 30.21 in 10.0 mi NNW 5.8 mph - N/A   Mostly Cloudy
9:34 AM 59.4 °F 54.9 °F 85% 30.22 in 10.0 mi North 5.8 mph - N/A   Overcast
9:53 AM 60.1 °F 55.2 °F 84% 30.22 in 10.0 mi NW 3.5 mph - N/A   Overcast
10:14 AM 59.9 °F 55.6 °F 86% 30.23 in 10.0 mi NW 4.6 mph - N/A   Overcast
10:34 AM 60.8 °F 55.6 °F 83% 30.23 in 10.0 mi NW 4.6 mph - N/A   Overcast
10:54 AM 60.4 °F 54.3 °F 80% 30.23 in 10.0 mi NNW 3.5 mph - N/A   Overcast
11:14 AM 61.0 °F 54.7 °F 80% 30.24 in 10.0 mi North 9.2 mph - N/A   Overcast
11:34 AM 61.3 °F 53.2 °F 75% 30.25 in 10.0 mi NNW 8.1 mph - N/A   Mostly Cloudy
11:54 AM 63.5 °F 51.6 °F 65% 30.24 in 10.0 mi NW 4.6 mph - N/A   Mostly Cloudy
12:14 PM 64.8 °F 52.7 °F 65% 30.24 in 10.0 mi WNW 5.8 mph - N/A   Mostly Cloudy
12:34 PM 64.6 °F 51.3 °F 62% 30.24 in 10.0 mi NNW 4.6 mph - N/A   Mostly Cloudy
12:54 PM 66.0 °F 52.7 °F 62% 30.24 in 10.0 mi NNW 8.1 mph - N/A   Mostly Cloudy
1:14 PM 64.9 °F 50.9 °F 60% 30.24 in 10.0 mi NW 8.1 mph - N/A   Mostly Cloudy
1:34 PM 63.0 °F 52.2 °F 68% 30.25 in 10.0 mi North 8.1 mph - N/A   Overcast
1:54 PM 65.3 °F 52.9 °F 64% 30.25 in 10.0 mi North 6.9 mph - N/A   Overcast
2:14 PM 65.1 °F 52.2 °F 63% 30.25 in 10.0 mi NW 11.5 mph 20.7 mph N/A   Mostly Cloudy
2:34 PM 64.2 °F 52.9 °F 67% 30.25 in 10.0 mi NNW 11.5 mph 17.3 mph N/A   Mostly Cloudy
2:54 PM 64.2 °F 51.8 °F 64% 30.25 in 10.0 mi NNW 10.4 mph 17.3 mph N/A   Mostly Cloudy
3:14 PM 62.4 °F 52.7 °F 70% 30.26 in 10.0 mi NNW 13.8 mph 17.3 mph N/A   Scattered Clouds
3:34 PM 64.0 °F 52.5 °F 66% 30.26 in 10.0 mi North 12.7 mph 18.4 mph N/A   Mostly Cloudy
3:54 PM 63.7 °F 51.6 °F 65% 30.26 in 10.0 mi NNW 11.5 mph 18.4 mph N/A   Scattered Clouds
4:14 PM 62.1 °F 50.5 °F 66% 30.26 in 10.0 mi North 8.1 mph - N/A   Mostly Cloudy
4:34 PM 62.6 °F 50.0 °F 63% 30.26 in 10.0 mi NNW 8.1 mph - N/A   Scattered Clouds
4:53 PM 62.8 °F 49.6 °F 62% 30.26 in 10.0 mi North 11.5 mph 18.4 mph N/A   Scattered Clouds
5:14 PM 62.4 °F 49.3 °F 62% 30.26 in 10.0 mi North 9.2 mph 17.3 mph N/A   Mostly Cloudy
5:34 PM 61.9 °F 48.9 °F 62% 30.27 in 10.0 mi NNW 8.1 mph - N/A   Mostly Cloudy
5:54 PM 60.3 °F 49.3 °F 67% 30.27 in 10.0 mi NNW 9.2 mph - N/A   Scattered Clouds
6:14 PM 59.9 °F 49.1 °F 67% 30.28 in 10.0 mi NNW 9.2 mph - N/A   Clear
6:34 PM 59.0 °F 48.7 °F 69% 30.28 in 10.0 mi North 6.9 mph - N/A   Clear
6:54 PM 57.7 °F 48.2 °F 70% 30.29 in 10.0 mi NNW 9.2 mph - N/A   Clear
7:14 PM 56.3 °F 48.2 °F 74% 30.29 in 10.0 mi North 5.8 mph - N/A   Clear
7:34 PM 54.7 °F 48.2 °F 79% 30.30 in 10.0 mi North 3.5 mph - N/A   Clear
7:54 PM 54.0 °F 48.4 °F 81% 30.30 in 10.0 mi North 3.5 mph - N/A   Clear
8:14 PM 53.1 °F 48.4 °F 84% 30.30 in 10.0 mi Calm Calm - N/A   Clear
8:34 PM 52.9 °F 48.2 °F 84% 30.31 in 10.0 mi Calm Calm - N/A   Clear
8:54 PM 52.0 °F 48.4 °F 88% 30.31 in 10.0 mi Calm Calm - N/A   Clear
9:14 PM 52.0 °F 48.6 °F 88% 30.32 in 10.0 mi Calm Calm - N/A   Clear
9:34 PM 50.9 °F 50.2 °F 97% 30.32 in 10.0 mi North 3.5 mph - N/A   Scattered Clouds
9:54 PM 48.7 °F 48.9 °F 100% 30.32 in 10.0 mi NNE 3.5 mph - N/A   Scattered Clouds
10:14 PM 48.7 °F 48.9 °F 100% 30.33 in 10.0 mi Calm Calm - N/A   Clear
10:34 PM 49.5 °F 49.6 °F 100% 30.33 in 10.0 mi NE 3.5 mph - N/A   Scattered Clouds
10:54 PM 49.3 °F 49.5 °F 100% 30.33 in 10.0 mi ENE 3.5 mph - N/A   Clear
11:14 PM 48.4 °F 48.6 °F 100% 30.33 in 10.0 mi Calm Calm - N/A   Clear
11:34 PM 48.7 °F 48.9 °F 100% 30.33 in 10.0 mi ENE 3.5 mph - N/A   Clear
11:54 PM 48.0 °F 48.2 °F 100% 30.33 in 10.0 mi Calm Calm - N/A   Clear